Other Public Products
Issued by NWS Grand Forks, ND

Home | Current Version | Previous Version | Text Only | Print | Product List | Glossary On
Versions: 1 2 3 4 5 6 7 8 9 10 11 12 13 14 15 16 17 18 19 20 21 22 23 24 25 26 27 28 29 30 31 32 33 34 35 36 37 38 39 40 41 42 43 44 45 46 47 48 49 50
186
FPUS83 KFGF 220631
OPUFGF
PRAIRIE TO PINES WEATHER ROUNDUP
NATIONAL WEATHER SERVICE EASTERN NORTH DAKOTA/GRAND FORKS ND
100 AM CDT TUE AUG 22 2017

 **SATELLITE DATA USED TO AUGMENT SKY COVER AT AUTOMATED STATIONS**
 *****  WEATHER ACROSS EASTERN NORTH DAKOTA  *****

CITY           SKY/WX    TMP DP  RH WIND       PRES   REMARKS
GRAND FORKS    FAIR      53  52  96 W7        29.99S
6HR MIN TEMP:  52; 6HR MAX TEMP:  74;

GRAND FORKS AF FAIR      50  47  89 W8        30.00S
GRAND CITY NWS NOT AVBL
BUXTON           N/A     54  54  97 W3          N/A
DEVILS LAKE    FAIR      53  46  77 NW9       30.06S
6HR MIN TEMP:  51; 6HR MAX TEMP:  69;

FARGO          FAIR      57  53  86 NW6       30.00R
6HR MIN TEMP:  55; 6HR MAX TEMP:  73;

WAHPETON ARPT  FAIR      52  48  87 NW6       30.01S
$$

 *****  WEATHER ACROSS CENTRAL AND WESTERN NORTH DAKOTA  *****

CITY           SKY/WX    TMP DP  RH WIND       PRES   REMARKS
JAMESTOWN      FAIR      52  46  80 W7        30.07R
6HR MIN TEMP:  52; 6HR MAX TEMP:  71;

BISMARCK       FAIR      53  46  77 W6        30.14R
6HR MIN TEMP:  53; 6HR MAX TEMP:  74;

MINOT          FAIR      53  42  66 SW9       30.12R
6HR MIN TEMP:  53; 6HR MAX TEMP:  73;

MINOT AFB      FAIR      47  41  78 W9        30.10S
6HR MIN TEMP:  47; 6HR MAX TEMP:  73;

GARRISON         N/A     47  42  83 NW8       30.13R
6HR MIN TEMP:  46; 6HR MAX TEMP:  72;

WILLISTON      FAIR      45  36  70 CALM      30.17R
6HR MIN TEMP:  45; 6HR MAX TEMP:  75;

DICKINSON      FAIR      54  38  54 NW7       30.17R
6HR MIN TEMP:  50; 6HR MAX TEMP:  73;

HETTINGER      FAIR      46  40  79 CALM      30.20R
6HR MIN TEMP:  45; 6HR MAX TEMP:  74;

$$

 *****  OTHER OBSERVATIONS NORTHEAST NORTH DAKOTA  *****

CITY           SKY/WX    TMP DP  RH WIND       PRES   REMARKS
WALHALLA       FAIR      55  54  94 W10       29.99S
LANGDON        FAIR      46  46 100 W8        30.03S
CAVALIER       FAIR      52  46  82 W9        29.98S
GRAFTON        FAIR      54  48  82 W9        30.01R
CANDO          FAIR      48  48 100 W8        30.08S
FORT TOTTEN      N/A     61  48  62 NW5       29.95S
ROLLA          FAIR      50  45  81 W8        30.07S
RUGBY          FAIR      46  43  87 W7        30.08S
 ***** THE ABOVE OBSERVATIONS ARE NON NWS ARE NOT QUALITY
        CONTROLLED AND MAY MIS-REPORT RAIN FOR SNOW...
$$

 *****  OTHER OBSERVATIONS SOUTHEAST NORTH DAKOTA *****

CITY           SKY/WX    TMP DP  RH WIND       PRES   REMARKS
COOPERSTOWN    FAIR      50  48  93 W8        30.05S
VALLEY CITY      N/A     52  52 100 W10       30.07S
OAKES          NOT AVBL
GWINNER        CLEAR     55  52  88 NW9       30.05R
SHEYENNE NWR     N/A     56  50  81 NW5       29.95S
BUFFALO          N/A     52  47  84 N5          N/A
WYNDMERE       NOT AVBL
 ***** THE ABOVE OBSERVATIONS ARE NON NWS ARE NOT QUALITY
       CONTROLLED AND MAY MIS-REPORT RAIN FOR SNOW...
$$

  *****  WEATHER ACROSS NORTHERN MINNESOTA  *****

CITY           SKY/WX    TMP DP  RH WIND       PRES   REMARKS
FLAG ISLAND    FAIR      55  52  88 W5        29.90F
WARROAD        FAIR      52  46  82 CALM      29.94S
ROSEAU         FAIR      54  48  82 W7        29.94F
HALLOCK        FAIR      48  46  93 W5        29.97R
THF RVR FALLS  FAIR      52  50  93 W7        29.98S
6HR MIN TEMP:  52; 6HR MAX TEMP:  70; 6HR PCP: TRACE;

HALSTAD          N/A     51  48  91 NW6         N/A
FOSSTON        FAIR      52  50  93 W8        29.99R
BAUDETTE       FAIR      52  51  97 W7        29.91S
6HR MIN TEMP:  52; 6HR MAX TEMP:  62; 6HR PCP:  0.25;

WASKISH        FAIR      55  54  94 NW10G16   29.93S
CROOKSTON      FAIR      48  48 100 W5        30.00S
$$
  *****  WEATHER ACROSS CENTRAL AND WEST MINNESOTA  *****

CITY           SKY/WX    TMP DP  RH WIND       PRES   REMARKS
BEMIDJI        FAIR      54  52  94 W6        29.95S
PARK RAPIDS    FAIR      55  52  89 NW8       29.95R
6HR MIN TEMP:  55; 6HR MAX TEMP:  71; 6HR PCP:  0.24;

WADENA         FAIR      55  52  88 NW6       29.96R
DETROIT LAKES  FAIR      54  52  94 NW7       30.00S
MOORHEAD       FAIR      54  50  87 NW6       30.01S
FERGUS FALLS   FAIR      55  54  94 N6        30.00R
ELBOW LAKE     FAIR      58  55  88 NW10G16   30.00R
MORRIS MN      FAIR      59  55  88 NW14      29.99R
STAPLES        FAIR      57  55  94 NW9       29.94R
WHEATON        FAIR      57  52  82 NW6       30.04R
$$
  *****  WEATHER ELSEWHERE ACROSS MINNESOTA  *****

CITY           SKY/WX    TMP DP  RH WIND       PRES   REMARKS
DULUTH         MOCLDY    56  56 100 N3        29.84F
6HR MIN TEMP:  56; 6HR MAX TEMP:  63; 6HR PCP:  1.04;

INTRNTL FALLS  FAIR      52  51  97 NW7       29.89R
6HR MIN TEMP:  50; 6HR MAX TEMP:  57; 6HR PCP:  0.06;

ELY            FAIR      54  52  94 CALM      29.84F
CLOQUET        FAIR      57  54  88 W3        29.86R FOG
BRAINERD       FAIR      60  59  96 W5        29.90S
6HR MIN TEMP:  60; 6HR MAX TEMP:  70; 6HR PCP:  0.26;

HIBBING        MOCLDY    52  52 100 CALM      29.87S
6HR MIN TEMP:  52; 6HR MAX TEMP:  61; 6HR PCP:  0.06;

ALEXANDRIA     FAIR      62  56  80 NW14G22   29.97R
6HR MIN TEMP:  62; 6HR MAX TEMP:  69;

SAINT CLOUD    FAIR      63  61  93 NW12      29.89R
6HR MIN TEMP:  63; 6HR MAX TEMP:  69;

MINNEAPOLIS    FAIR      67  62  84 W9        29.86F
6HR MIN TEMP:  67; 6HR MAX TEMP:  71;

$$

  *****  WEATHER ACROSS SOUTH DAKOTA  *****

CITY           SKY/WX    TMP DP  RH WIND       PRES   REMARKS
SIOUX FALLS    FAIR      64  63  96 NW13      30.02R
6HR MIN TEMP:  63; 6HR MAX TEMP:  71; 6HR PCP: TRACE;

BROOKINGS      FAIR      60  56  86 NW8       30.04R
WATERTOWN      FAIR      59  54  83 N12       30.05R
6HR MIN TEMP:  59; 6HR MAX TEMP:  72;

HURON          FAIR      55  52  89 NW7       30.07R
6HR MIN TEMP:  54; 6HR MAX TEMP:  79;

SISSETON         N/A     56  53  90 NW8       30.03R
ABERDEEN       FAIR      57  48  72 NW10      30.08R
6HR MIN TEMP:  56; 6HR MAX TEMP:  77;

MITCHELL       FAIR      60  55  83 NW10      30.07R
PIERRE         FAIR      60  47  61 N10       30.12R
6HR MIN TEMP:  60; 6HR MAX TEMP:  78;

MOBRIDGE       FAIR      50  47  89 N5        30.11S
RAPID CITY     FAIR      55  42  61 W7        30.22R
6HR MIN TEMP:  53; 6HR MAX TEMP:  78;

$$

  *****  SOME WEATHER IN NEARBY STATES *****

CITY           SKY/WX    TMP DP  RH WIND       PRES   REMARKS
GLASGOW MT     FAIR      55  28  35 E10       30.16S
6HR MIN TEMP:  55; 6HR MAX TEMP:  76;

GREAT FALLS MT FAIR      63  35  35 E8        30.16S
6HR MIN TEMP:  63; 6HR MAX TEMP:  78;

CHEYENNE WY    FAIR      60  43  53 E3        30.34R
6HR MIN TEMP:  59; 6HR MAX TEMP:  76;

SCOTTSBLUFF NE FAIR      61  47  59 S5        30.25R
6HR MIN TEMP:  60; 6HR MAX TEMP:  82;

OMAHA NE       CLOUDY    67  63  87 CALM      30.01R
6HR MIN TEMP:  66; 6HR MAX TEMP:  81; 6HR PCP:  0.23;

DES MOINES IA  LGT RAIN  66  65  96 W8        29.96R
6HR MIN TEMP:  66; 6HR MAX TEMP:  68; 6HR PCP:  0.26;

DAVENPORT IA   LGT RAIN  71  65  81 SW15G23   29.89F
6HR MIN TEMP:  71; 6HR MAX TEMP:  78; 6HR PCP: TRACE;

CHICAGO IL     CLOUDY    72  68  87 S15       29.83F
6HR MIN TEMP:  72; 6HR MAX TEMP:  81; 6HR PCP: TRACE;

EAU CLAIRE WI  FAIR      66  63  90 SW8       29.83F
6HR MIN TEMP:  65; 6HR MAX TEMP:  71; 6HR PCP: TRACE;

LA CROSSE WI   MOCLDY    69  65  86 W8        29.89F
6HR MIN TEMP:  68; 6HR MAX TEMP:  71; 6HR PCP:  0.03;

$$

  *****  SOME NATIONAL WEATHER *****

CITY           SKY/WX    TMP DP  RH WIND       PRES   REMARKS
LA GUARDIA NY  FAIR      78  71  79 SW9       30.07F
6HR MIN TEMP:  78; 6HR MAX TEMP:  83;



USA.gov is the U.S. government's official web portal to all federal, state and local government web resources and services.